Find Starlink 5458

NORAD ID: 54764 Int'l Des: 2022-175 Owner: SPXS Country: US Constellation: starlink operational
LEOCIRCULAR

当前视图

正在加载3D地球...

About Starlink 5458

Starlink 5458 (NORAD 54764) is a starlink constellation satellite (v1.5) launched Dec 17, 2022 by SPXS of US. It operates in LEO, CIRCULAR orbit with a mass of 305.00 kg.

即将过境

Passes for default location (London). Set your location on the main map for personalized predictions.

高度历史

Loading altitude history...

两行轨道根数

1 54764U 22175G 26265.61798836 .00000350 00000-0 21506-4 0 9998
2 54764 53.1587 227.8252 0001378 91.1059 269.0101 15.34387377209816
Epoch: Sep 22, 2026 • Age: 17 hours

当前状态

高度 469.4 km
远地点 / 近地点 N/A
速度 7.63 km/s
星下点 -21.73°S, 86.41°E
发射日期 Dec 17, 2022
运行时间 3.7 years
类型 internet

技术详情

分类 Payload
质量 305.00 kg
干质量 290.00 kg
长度 0.20 m
跨度 9.00 m
形状 ? Box + pan
制造商 SPXS
平台类型 Starlink
阶段状态 In Orbit
所有者/国家 SPXS/US

Most Searched